Tracking 31027 objects as of 19-Jul-2025
HD Live streaming from Space Station
objects crossing your sky now

STARLINK-11628

Track STARLINK-11628 now!
10-day predictions
STARLINK-11628 is classified as:


NORAD ID: 63139
Int'l Code: 2025-043H
Perigee: 363.2 km
Apogee: 363.9 km
Inclination: 43.0 °
Period: 91.7 minutes
Semi major axis: 6734 km
RCS: Unknown
Launch date: March 2, 2024
Source: United States (US)
Launch site: AIR FORCE EASTERN TEST RANGE (AFETR)
Your satellite tracking list
SES-6
Track 1 satellite(s)




NASA's NSSDC Master Catalog

Two Line Element Set (TLE):
1 63139U 25043H   25199.77398623  .00138387  00000-0  10630-2 0  9999
2 63139  43.0002 220.6474 0000528 312.6138  47.4685 15.70865144 22680
Source of the keplerian elements: AFSPC